Location: Melbourne
(37.8666°S, 145.1333°E)
Time: 17:12:14
(UTC+11:00)

Daily predictions for brighter satellites

Satellite Brightness Start Highest point End
(mag) Time Altitude Azimuth Time Altitude Azimuth Time Altitude Azimuth
MSX 3.9 19:42:07 10° SSE 19:47:58 81° ENE 19:53:46 10° N
Cosmos 1842 3.2 19:45:51 10° N 19:49:43 64° E 19:53:40 10° SSE
Cosmos 1821 Rocket 4.3 19:45:15 10° S 19:51:38 79° W 19:58:01 10° N
AQUARIUS 4.5 19:47:08 10° S 19:51:43 77° WSW 19:56:13 10° NNW
Cosmos 1805 3.7 19:50:11 10° S 19:53:58 40° E 19:57:41 10° NNE
Cosmos 1943 4.0 19:50:59 10° NNE 19:55:44 29° ENE 20:00:31 10° SE
IDEFIX/ARIANE 42P 3.7 19:52:31 10° S 19:57:40 50° WSW 20:02:45 10° NW
SJ-6B 4.5 19:57:43 10° ESE 20:00:00 15° E 20:02:14 10° NE
Meteor 1-29 3.6 19:57:46 10° NE 20:01:01 35° ESE 20:04:19 10° S
Cosmos 2098 Rocket 3.9 19:57:08 10° SSE 20:01:05 34° E 20:05:53 10° NE
Exosat Rocket 4.2 19:56:22 10° NNW 20:01:18 62° WSW 20:07:07 10° SSE
Abrixas rocket 4.1 20:00:04 10° N 20:02:09 16° NE 20:03:51 12° E
Cosmos-2242 4.2 19:59:52 10° SSE 20:03:24 23° ESE 20:06:52 10° NE
Hubble Space Telescope 2.6 20:01:21 10° NW 20:04:28 20° N 20:07:35 10° NE
Cosmos 1470 4.1 20:03:47 10° SSE 20:06:57 22° ESE 20:10:06 10° NE
Cosmos 1605 Rocket 3.9 20:03:34 10° S 20:09:46 78° E 20:15:55 10° N
Intercosmos 25 4.2 20:06:01 10° S 20:10:24 68° E 20:17:27 10° NNE
SL-16 R/B 4.1 20:07:55 10° WNW 20:12:59 33° WSW 20:18:07 10° S
Cosmos 1825 Rocket 3.8 20:10:41 10° NNW 20:15:03 75° W 20:19:29 10° S
CZ-2C R/B 4.4 20:11:19 10° S 20:15:23 31° WSW 20:19:27 10° NW
Cosmos 292 Rocket 4.4 20:11:45 10° NNE 20:16:04 34° E 20:20:26 10° SE
Cosmos 1758 3.2 20:15:59 10° S 20:20:05 75° E 20:24:06 10° NNE
METEOR-M 4.4 20:15:01 10° SSE 20:20:11 44° E 20:25:17 10° N
Tiangong 2 3.7 20:18:57 10° WNW 20:21:00 16° NW 20:23:02 10° N
Meteor 2-5 Rocket 4.4 20:18:19 10° NNE 20:23:37 35° E 20:28:58 10° SSE
Cosmos 1680 Rocket 4.4 20:23:42 10° NNE 20:27:59 26° E 20:32:18 10° SE
Cosmos 1953 2.3 20:25:53 10° S 20:30:01 89° SE 20:34:08 10° N
Cosmos 1733 3.7 20:26:50 10° S 20:30:28 37° E 20:32:59 17° NE
ATLAS CENTAUR R/B 3.1 20:30:06 10° NNE 20:31:04 14° NE 20:31:04 14° NE
OTV 4 0.6 20:30:32 10° WNW 20:33:30 55° NNE 20:34:29 35° ENE
Cosmos 2061 Rocket 4.3 20:29:23 10° S 20:35:24 45° ESE 20:41:23 10° NNE
Cosmos 2369 Rocket 2.4 20:32:46 10° SSW 20:38:24 50° ESE 20:42:17 19° NE
Cosmos 1538 Rocket 4.1 20:33:20 10° NNW 20:38:32 79° WSW 20:43:53 10° SSE
Helios 1B rocket 3.3 20:34:38 10° N 20:38:40 52° W 20:42:45 10° SSW
Cosmos 1727 Rocket 4.4 20:34:57 10° NNW 20:41:07 67° W 20:47:26 10° S
Meteor 2-15 Rocket 4.4 20:36:39 10° N 20:42:44 77° E 20:48:54 10° S
GPS 2-04 Rocket1 2.9 20:39:39 10° WNW 20:43:40 64° N 20:45:20 34° ENE
ERBS 2.3 20:40:33 10° SW 20:44:04 89° NW 20:45:27 34° NE
Cosmos 1842 Rocket 4.4 20:41:45 10° SSE 20:45:48 31° ESE 20:46:11 30° E
Meteor 1-4 Rocket 4.1 20:42:51 10° SSW 20:46:23 39° W 20:49:47 10° NNW
Cosmos 923 Rocket 4.1 20:41:48 10° N 20:46:56 54° ENE 20:52:06 10° SSE
USA 234 3.3 20:43:05 10° SE 20:49:39 61° NE 20:56:08 10° NNW
ATLAS 2AS CENTAUR R/B 2.5 20:44:05 10° NNW 20:50:37 89° WSW 20:56:48 10° SSE
ATLAS 3B R/B 3.1 20:50:44 10° SSW 20:57:50 50° SE 21:01:15 31° ENE
FengYun 1-2 T 4.4 20:53:18 10° SSE 20:58:39 48° E 21:03:57 10° N
Cosmos 1000 Rocket 4.4 20:54:07 10° N 21:00:24 80° E 21:06:50 10° S
Cosmos 1271 Rocket 3.0 20:56:50 10° SSW 21:00:42 67° W 21:04:15 12° N
FREGAT/IRIS 3.0 20:58:25 10° S 21:01:35 67° WSW 21:04:41 10° NNW
Cosmos 1378 4.3 21:03:52 29° SSE 21:03:52 29° SSE 21:05:58 10° SSE
GP-B 3.2 20:58:48 10° SSE 21:03:13 50° E 21:03:34 48° ENE
FENGYUN 3A 3.6 20:59:40 10° SSE 21:05:08 63° E 21:10:31 10° N
Resurs 01 Rocket 3.0 21:00:57 10° SSE 21:02:57 24° SE 21:02:57 24° SE
ALOS 2.1 21:02:19 10° SSE 21:07:04 74° ENE 21:11:46 10° N
Cosmos 1459 Rocket 4.0 21:01:51 10° S 21:08:20 89° E 21:14:44 10° N
Cosmos 2123 Rocket 4.1 21:02:44 10° NNE 21:08:43 50° E 21:14:43 10° SSE
CZ-4C R/B 3.4 21:05:25 10° SW 21:10:32 37° WNW 21:15:12 10° N
Cosmos 2173 Rocket 3.9 21:04:53 10° S 21:11:06 88° W 21:17:12 10° N
Cosmos 1241 Rocket 4.3 21:05:04 10° NNW 21:11:17 77° ENE 21:17:29 10° SSE
GEOS 3 Rocket 4.0 21:13:18 25° NNE 21:16:23 64° WNW 21:21:41 10° SW
Cosmos 389 Rocket 4.2 21:12:54 10° S 21:14:32 24° S 21:14:32 24° S
Cosmos 1707 3.6 21:16:19 10° NNW 21:20:05 49° W 21:23:54 10° S
Cosmos 1943 Rocket 2.2 21:15:26 10° SSW 21:20:55 56° ESE 21:21:17 55° E
Cosmos 2112 Rocket 3.8 21:19:43 10° NNW 21:24:55 79° ENE 21:30:11 10° SSE
DELTA 2 R/B (1) 3.6 21:19:41 10° WSW 21:25:19 69° NNW 21:26:13 58° NNE
Meteor 2-1 Rocket 4.4 21:19:56 10° S 21:25:49 53° ESE 21:25:52 53° E
BREEZE-M DEB (TANK) 3.9 21:23:44 10° SSW 21:25:19 24° S 21:25:19 24° S
Meteor 1-16 Rocket 4.1 21:25:15 10° S 21:30:45 82° W 21:32:49 40° N
SJ-6B 4.4 21:31:05 10° S 21:34:49 36° WSW 21:38:25 10° NW
Cosmos 2016 Rocket 4.2 21:35:40 10° SSW 21:42:05 70° W 21:45:54 26° N
USA 238 DEB 3.7 21:36:10 10° SSW 21:43:15 66° SE 21:43:54 63° E
USA 238 3.7 21:36:15 10° SSW 21:43:21 65° SE 21:43:58 62° E
Hubble Space Telescope 3.2 21:41:56 10° NW 21:43:08 15° NW 21:43:08 15° NW
Cosmos 1725 Rocket 3.9 21:41:52 10° S 21:48:18 90° SSE 21:49:12 68° N
Cosmos 1607 3.8 21:44:21 10° SSW 21:50:37 81° WNW 21:50:59 77° NNW
Meteor 1-24 Rocket 4.3 21:52:47 10° NNW 21:58:39 60° WSW 22:04:43 10° S
Cosmos 2369 Rocket 4.3 22:17:47 10° SW 22:21:58 21° W 22:24:08 17° NW
COSMOS 2455 4.4 22:23:42 10° SSW 22:26:32 26° S 22:26:32 26° S
USA 234 4.3 22:28:54 23° SSE 22:32:24 41° SSW 22:38:28 10° W
Resurs 01 Rocket 4.3 22:38:21 10° SSW 22:40:29 17° SW 22:40:29 17° SW
ATLAS 3B R/B 4.0 22:41:51 10° SW 22:48:21 35° WNW 22:48:32 35° WNW
